Location: Unspecified
(0.0000°N, 0.0000°E)
Time: 04:02:20
(UTC+02:00)

ASC 2 Rocket - Visible Passes

Search period start: 30 July 2016 00:00
Search period end: 09 August 2016 00:00
Orbit: 556 x 2346 km, 24.0° (Epoch: 29 July)

Date Brightness Start Highest point End Pass type
(mag) Time Alt. Az. Time Alt. Az. Time Alt. Az.
30 Jul 7.3 01:01:14 10° WNW 01:04:27 20° WNW 01:04:27 20° WNW visible
30 Jul 6.0 21:49:37 10° NW 22:01:14 53° NNE 22:07:12 36° ENE visible
30 Jul 6.3 23:53:14 10° WNW 00:02:00 50° WNW 00:02:00 50° WNW visible
31 Jul 6.4 06:24:22 12° SSW 06:25:14 12° S 06:28:12 10° SSE visible
31 Jul 6.3 20:43:31 10° NW 20:53:14 39° NNE 21:04:46 12° E visible
31 Jul 5.6 22:45:59 10° WNW 22:58:46 80° NNE 22:59:35 78° ENE visible
01 Aug 7.2 00:51:02 10° W 00:54:23 21° W 00:54:23 21° W visible
01 Aug 6.8 05:22:06 11° SSE 05:22:06 11° SSE 05:22:45 10° SSE visible
01 Aug 6.2 07:19:23 10° SSW 07:23:15 14° S 07:26:30 10° SSE visible
01 Aug 5.8 21:39:25 10° NW 21:50:36 62° NNE 21:57:12 36° E visible
01 Aug 6.2 23:43:03 10° WNW 23:52:00 51° W 23:52:00 51° W visible
02 Aug 6.4 06:14:37 15° S 06:15:53 15° S 06:20:17 10° SSE visible
02 Aug 6.0 20:33:28 10° NW 20:42:49 45° NNE 20:54:51 12° E visible
02 Aug 5.5 22:35:52 10° WNW 22:48:01 87° SSW 22:49:39 75° SE visible
03 Aug 7.2 00:41:05 10° W 00:44:28 20° W 00:44:28 20° W visible
03 Aug 6.8 05:12:21 13° SSE 05:12:21 13° SSE 05:14:01 10° SE visible
03 Aug 6.1 07:07:51 10° SW 07:13:55 19° S 07:18:37 10° SE visible
03 Aug 5.5 21:29:23 10° WNW 21:39:59 73° NNE 21:47:20 34° ESE visible
03 Aug 6.2 23:33:06 10° W 23:42:09 49° WSW 23:42:09 49° WSW visible
04 Aug 6.4 06:04:52 18° S 06:06:30 19° S 06:12:07 10° SE visible
04 Aug 5.7 20:23:31 10° NW 20:32:25 54° NNE 20:45:03 10° ESE visible
04 Aug 5.6 22:25:57 10° WNW 22:37:22 74° SSW 22:39:52 63° SSE visible
05 Aug 7.2 00:31:24 10° W 00:34:41 20° WSW 00:34:41 20° WSW visible
05 Aug 6.8 05:02:35 16° SSE 05:02:35 16° SSE 05:05:23 10° SE visible
05 Aug 5.9 06:57:24 12° SW 07:04:28 26° SSE 07:10:17 10° ESE visible
05 Aug 5.4 21:19:31 10° WNW 21:29:26 87° NNE 21:37:37 29° ESE visible
05 Aug 6.2 23:23:24 10° W 23:32:26 45° SW 23:32:26 45° SW visible
06 Aug 6.3 05:55:08 23° S 05:57:00 24° S 06:03:43 10° ESE visible
06 Aug 5.3 20:13:42 10° NW 20:22:02 65° NNE 20:34:29 10° ESE visible
06 Aug 5.7 22:16:16 10° W 22:26:53 61° SSW 22:30:12 50° SSE visible
07 Aug 7.2 00:21:57 10° WSW 00:25:01 19° WSW 00:25:01 19° WSW visible
07 Aug 6.7 04:52:52 20° SSE 04:52:52 20° SSE 04:56:45 10° SE visible
07 Aug 5.7 06:47:41 17° SW 06:54:54 36° SSE 07:01:35 10° E visible
07 Aug 5.3 21:09:51 10° WNW 21:19:02 77° SSW 21:27:59 24° ESE visible
07 Aug 6.3 23:13:59 10° W 23:22:48 39° SW 23:22:48 39° SW visible
08 Aug 6.1 05:45:27 30° S 05:47:20 31° SSE 05:55:05 10° ESE visible
08 Aug 4.9 07:42:17 10° SW 07:52:11 61° SSE 07:58:34 10° ENE visible
08 Aug 5.8 22:06:50 10° W 22:16:35 50° SSW 22:20:36 40° SSE visible
